Location: Cuiry
(49.3858°N, 3.7708°E)
Time: 14:55:06
(UTC+00:00)

COSMOS 2455 - Visible Passes

Search period start: 11 April 2026 00:00
Search period end: 21 April 2026 00:00
Orbit: 900 x 908 km, 67.1° (Epoch: 11 April)

Date Brightness Start Highest point End Pass type
(mag) Time Alt. Az. Time Alt. Az. Time Alt. Az.
11 Apr 3.4 00:20:33 10° NW 00:24:58 51° NW 00:24:58 51° NW visible
11 Apr 5.2 19:04:03 10° NW 19:07:39 16° NNW 19:11:17 10° NNE visible
11 Apr 5.2 20:52:34 10° NNW 20:56:11 16° NNE 20:59:47 10° NE visible
11 Apr 4.0 22:38:28 10° NNW 22:43:59 35° NE 22:45:16 32° ENE visible
12 Apr 3.6 00:24:19 10° NW 00:28:21 42° WNW 00:28:21 42° WNW visible
12 Apr 5.2 19:08:27 10° NW 19:11:48 15° N 19:15:10 10° NNE visible
12 Apr 5.1 20:56:23 10° NNW 21:00:18 17° NNE 21:04:12 10° ENE visible
12 Apr 3.6 22:42:09 10° NNW 22:47:53 42° NE 22:48:41 40° ENE visible
13 Apr 3.9 00:28:09 10° NW 00:31:47 34° WNW 00:31:47 34° WNW visible
13 Apr 5.2 19:12:46 10° NW 19:15:58 14° N 19:19:09 10° NNE visible
13 Apr 4.9 21:00:09 10° NNW 21:04:23 19° NNE 21:08:37 10° ENE visible
13 Apr 3.3 22:45:51 10° NNW 22:51:44 52° NE 22:52:08 51° ENE visible
14 Apr 4.2 00:32:04 10° NW 00:35:14 27° WNW 00:35:14 27° WNW visible
14 Apr 5.2 19:17:00 10° NNW 19:20:07 14° N 19:23:15 10° NNE visible
14 Apr 4.7 21:03:52 10° NNW 21:08:27 22° NNE 21:12:30 12° ENE visible
14 Apr 3.0 22:49:32 10° NNW 22:55:33 65° NE 22:55:37 65° NE visible
15 Apr 4.5 00:36:03 10° NW 00:38:43 22° WNW 00:38:43 22° WNW visible
15 Apr 5.1 19:21:06 10° NNW 19:24:17 14° N 19:27:28 10° NE visible
15 Apr 4.5 21:07:35 10° NNW 21:12:29 25° NNE 21:16:01 15° ENE visible
15 Apr 2.8 22:53:15 10° NW 22:59:07 79° NNE 22:59:07 79° NNE visible
16 Apr 4.7 00:40:10 10° WNW 00:42:14 17° WNW 00:42:14 17° WNW visible
16 Apr 5.1 19:25:06 10° NNW 19:28:26 15° N 19:31:46 10° NE visible
16 Apr 4.3 21:11:16 10° NNW 21:16:28 29° NE 21:19:33 19° E visible
16 Apr 2.8 22:57:00 10° NW 23:02:39 76° WNW 23:02:39 76° WNW visible
17 Apr 4.9 00:44:32 10° WNW 00:45:46 13° WNW 00:45:46 13° WNW visible
17 Apr 5.0 19:29:00 10° NNW 19:32:35 16° NNE 19:36:09 10° NE visible
17 Apr 4.0 21:14:56 10° NNW 21:20:25 34° NE 21:23:05 24° E visible
17 Apr 3.0 23:00:47 10° NW 23:06:13 61° W 23:06:13 61° W visible
18 Apr 4.9 19:32:50 10° NNW 19:36:42 17° NNE 19:40:34 10° ENE visible
18 Apr 3.7 21:18:37 10° NNW 21:24:19 41° NE 21:26:41 29° E visible
18 Apr 3.3 23:04:36 10° NW 23:09:48 48° W 23:09:48 48° W visible
19 Apr 4.8 19:36:36 10° NNW 19:40:48 19° NNE 19:44:59 10° ENE visible
19 Apr 3.3 21:22:18 10° NNW 21:28:10 50° NE 21:30:17 35° E visible
19 Apr 3.7 23:08:29 10° NW 23:13:24 37° W 23:13:24 37° W visible
20 Apr 4.6 19:40:20 10° NNW 19:44:52 21° NNE 19:49:22 10° ENE visible
20 Apr 3.0 21:25:59 10° NNW 21:32:00 63° NE 21:33:56 42° ESE visible
20 Apr 4.1 23:12:28 10° NW 23:17:03 29° W 23:17:03 29° W visible
